TimeEST,TemperatureF,Dew PointF,Humidity,Sea Level PressureIn,VisibilityMPH,Wind Direction,Wind SpeedMPH,Gust SpeedMPH,PrecipitationIn,Events,Conditions,WindDirDegrees,DateUTC
12:15 AM,37.0,26.1,65,29.65,10.0,SSE,10.4,-,N/A,Rain,Light Rain,160,2013-01-20 05:15:00
12:35 AM,36.9,25.2,63,29.63,10.0,SSE,9.2,-,N/A,,Overcast,160,2013-01-20 05:35:00
12:55 AM,39.0,22.6,52,29.61,10.0,South,6.9,-,N/A,,Overcast,180,2013-01-20 05:55:00
1:15 AM,39.4,21.6,49,29.61,10.0,South,9.2,16.1,N/A,,Overcast,170,2013-01-20 06:15:00
1:35 AM,39.6,22.1,50,29.60,10.0,South,6.9,-,N/A,,Overcast,180,2013-01-20 06:35:00
1:55 AM,39.7,22.6,50,29.60,10.0,South,10.4,-,N/A,,Overcast,190,2013-01-20 06:55:00
2:15 AM,39.6,23.4,52,29.59,10.0,South,10.4,18.4,N/A,,Mostly Cloudy,190,2013-01-20 07:15:00
2:35 AM,39.9,24.3,54,29.58,10.0,South,10.4,20.7,N/A,,Overcast,170,2013-01-20 07:35:00
2:55 AM,40.1,25.3,56,29.55,10.0,South,12.7,17.3,N/A,,Overcast,180,2013-01-20 07:55:00
3:15 AM,40.5,25.3,55,29.54,10.0,South,11.5,18.4,N/A,,Overcast,180,2013-01-20 08:15:00
3:35 AM,40.5,25.2,54,29.52,10.0,South,10.4,18.4,N/A,,Mostly Cloudy,180,2013-01-20 08:35:00
3:55 AM,39.4,25.5,58,29.50,10.0,South,15.0,-,N/A,,Mostly Cloudy,170,2013-01-20 08:55:00
4:15 AM,40.1,25.5,56,29.47,10.0,South,11.5,19.6,N/A,,Scattered Clouds,170,2013-01-20 09:15:00
4:35 AM,40.1,25.2,55,29.44,10.0,South,10.4,20.7,N/A,,Clear,180,2013-01-20 09:35:00
4:55 AM,40.5,24.1,52,29.42,10.0,South,11.5,28.8,N/A,,Clear,170,2013-01-20 09:55:00
5:15 AM,40.6,23.2,50,29.40,10.0,South,13.8,24.2,N/A,,Clear,170,2013-01-20 10:15:00
5:35 AM,40.8,22.6,48,29.39,10.0,South,11.5,25.3,N/A,,Clear,190,2013-01-20 10:35:00
5:55 AM,40.6,22.3,48,29.39,10.0,South,17.3,25.3,N/A,,Clear,170,2013-01-20 10:55:00
6:15 AM,40.6,22.1,48,29.37,10.0,South,16.1,28.8,N/A,,Scattered Clouds,170,2013-01-20 11:15:00
6:35 AM,40.6,22.1,48,29.35,10.0,South,12.7,26.5,N/A,,Mostly Cloudy,180,2013-01-20 11:35:00
7:15 AM,40.1,22.3,49,29.32,10.0,South,17.3,28.8,N/A,,Scattered Clouds,180,2013-01-20 12:15:00
7:35 AM,40.1,22.6,50,29.31,10.0,South,16.1,25.3,N/A,,Mostly Cloudy,170,2013-01-20 12:35:00
7:55 AM,40.1,22.6,50,29.31,10.0,South,15.0,27.6,N/A,,Mostly Cloudy,170,2013-01-20 12:55:00
8:15 AM,40.5,23.0,50,29.32,10.0,South,12.7,27.6,N/A,,Overcast,190,2013-01-20 13:15:00
8:35 AM,39.6,24.3,54,29.37,10.0,SW,17.3,31.1,N/A,Rain,Light Rain,220,2013-01-20 13:35:00
8:55 AM,36.9,30.2,77,29.42,5.0,WSW,9.2,34.5,N/A,Rain,Light Rain,240,2013-01-20 13:55:00
9:15 AM,36.9,28.4,71,29.41,10.0,SSW,15.0,19.6,N/A,,Overcast,210,2013-01-20 14:15:00
9:35 AM,36.9,26.6,66,29.41,10.0,SW,17.3,25.3,N/A,,Overcast,220,2013-01-20 14:35:00
9:55 AM,36.9,24.3,60,29.42,10.0,SW,13.8,27.6,N/A,,Mostly Cloudy,220,2013-01-20 14:55:00
10:15 AM,36.9,23.7,59,29.43,10.0,SW,9.2,23.0,N/A,,Scattered Clouds,220,2013-01-20 15:15:00
10:35 AM,38.1,22.8,54,29.43,10.0,WSW,11.5,18.4,N/A,,Scattered Clouds,240,2013-01-20 15:35:00
10:55 AM,38.3,19.6,47,29.43,10.0,SW,10.4,28.8,N/A,,Scattered Clouds,230,2013-01-20 15:55:00
11:15 AM,38.8,20.1,47,29.42,10.0,SW,17.3,29.9,N/A,,Mostly Cloudy,230,2013-01-20 16:15:00
11:35 AM,39.2,18.3,43,29.43,10.0,SW,18.4,38.0,N/A,,Overcast,230,2013-01-20 16:35:00
11:55 AM,36.9,19.6,50,29.44,10.0,WSW,19.6,28.8,N/A,,Overcast,240,2013-01-20 16:55:00
12:15 PM,36.0,22.8,59,29.48,4.0,WSW,19.6,33.4,N/A,Snow,Light Snow,250,2013-01-20 17:15:00
12:35 PM,34.3,26.1,72,29.49,7.0,WSW,12.7,26.5,N/A,,Mostly Cloudy,240,2013-01-20 17:35:00
12:55 PM,34.9,23.4,63,29.49,10.0,WSW,11.5,27.6,N/A,,Mostly Cloudy,240,2013-01-20 17:55:00
1:15 PM,36.9,19.9,50,29.50,10.0,WSW,18.4,32.2,N/A,,Mostly Cloudy,240,2013-01-20 18:15:00
1:35 PM,34.3,13.1,42,29.52,10.0,WSW,17.3,32.2,N/A,,Overcast,240,2013-01-20 18:35:00
1:55 PM,34.3,14.4,44,29.54,10.0,West,13.8,29.9,N/A,,Mostly Cloudy,260,2013-01-20 18:55:00
2:15 PM,32.0,17.6,55,29.56,10.0,WSW,18.4,27.6,N/A,,Overcast,240,2013-01-20 19:15:00
2:35 PM,32.0,21.7,66,29.58,10.0,WSW,13.8,26.5,N/A,,Overcast,250,2013-01-20 19:35:00
2:55 PM,29.7,19.9,67,29.60,7.0,WSW,11.5,21.9,N/A,Snow,Light Snow,250,2013-01-20 19:55:00
3:15 PM,28.9,19.4,68,29.61,10.0,WSW,17.3,32.2,N/A,,Mostly Cloudy,250,2013-01-20 20:15:00
3:35 PM,28.4,19.4,69,29.64,4.0,WSW,12.7,25.3,N/A,Snow,Light Snow,250,2013-01-20 20:35:00
3:55 PM,27.1,18.5,70,29.68,4.0,West,15.0,28.8,N/A,Snow,Light Snow,280,2013-01-20 20:55:00
4:15 PM,24.4,18.0,76,29.71,7.0,West,13.8,24.2,N/A,Snow,Light Snow,280,2013-01-20 21:15:00
4:35 PM,22.1,14.0,71,29.73,10.0,West,9.2,24.2,N/A,,Scattered Clouds,270,2013-01-20 21:35:00
4:55 PM,22.1,11.8,65,29.75,10.0,West,9.2,20.7,N/A,,Scattered Clouds,280,2013-01-20 21:55:00
5:15 PM,20.3,8.1,59,29.78,10.0,WNW,13.8,23.0,N/A,,Scattered Clouds,290,2013-01-20 22:15:00
5:35 PM,19.4,7.3,60,29.80,10.0,West,10.4,17.3,N/A,,Clear,280,2013-01-20 22:35:00
6:15 PM,17.2,4.6,58,29.83,10.0,West,9.2,16.1,N/A,,Clear,270,2013-01-20 23:15:00
6:35 PM,17.1,4.5,58,29.84,10.0,West,8.1,-,N/A,,Clear,270,2013-01-20 23:35:00
6:55 PM,16.3,4.1,59,29.85,10.0,WNW,10.4,16.1,N/A,,Clear,290,2013-01-20 23:55:00
7:15 PM,14.7,1.4,56,29.86,10.0,West,10.4,20.7,N/A,,Clear,280,2013-01-21 00:15:00
7:35 PM,14.5,0.9,55,29.88,10.0,West,5.8,20.7,N/A,,Clear,260,2013-01-21 00:35:00
7:55 PM,14.5,0.7,54,29.90,10.0,West,8.1,25.3,N/A,,Clear,280,2013-01-21 00:55:00
8:15 PM,13.5,0.3,56,29.90,10.0,WSW,9.2,-,N/A,,Clear,250,2013-01-21 01:15:00
8:35 PM,12.9,0.3,57,29.92,10.0,WNW,4.6,-,N/A,,Clear,290,2013-01-21 01:35:00
8:55 PM,12.7,0.1,57,29.93,10.0,WSW,6.9,-,N/A,,Scattered Clouds,250,2013-01-21 01:55:00
9:15 PM,12.2,-0.2,58,29.94,10.0,West,8.1,-,N/A,,Mostly Cloudy,280,2013-01-21 02:15:00
9:35 PM,12.2,-0.2,58,29.95,10.0,NW,4.6,-,N/A,,Overcast,310,2013-01-21 02:35:00
9:55 PM,12.0,0.3,59,29.95,10.0,WNW,6.9,-,N/A,,Overcast,300,2013-01-21 02:55:00
10:15 PM,11.7,0.1,60,29.97,10.0,NW,5.8,-,N/A,,Mostly Cloudy,310,2013-01-21 03:15:00
10:55 PM,9.5,-2.2,59,29.98,10.0,West,8.1,19.6,N/A,,Clear,270,2013-01-21 03:55:00
11:15 PM,9.5,-1.8,60,29.99,10.0,WNW,9.2,16.1,N/A,,Scattered Clouds,290,2013-01-21 04:15:00
11:35 PM,8.8,-1.7,63,30.00,10.0,WNW,8.1,-,N/A,,Mostly Cloudy,290,2013-01-21 04:35:00
11:55 PM,8.2,-2.4,62,30.01,10.0,West,8.1,-,N/A,,Overcast,280,2013-01-21 04:55:00